Theta_e
326 320 317 305 297 293 288 292 295 296 298 304 306 307 306 310 309 308 326 334 339 339 347 350 354 354 354 353 352 351 351 350 352 351 348 348 346 344 344 342 340 338 337 337 336 335 335 335 337
323 322 307 300 289 286 288 293 294 298 301 301 303 301 301 304 315 326 327 338 339 339 348 348 353 353 353 352 351 350 351 352 352 349 346 346 344 343 342 340 338 337 336 335 334 334 335 335 335
322 322 302 295 288 284 286 291 293 299 301 300 298 301 299 301 320 328 331 338 338 338 347 347 352 352 351 351 350 351 352 352 350 348 345 343 342 341 339 338 336 335 334 334 334 335 334 333 332
312 306 301 291 289 292 291 292 298 298 301 301 299 296 300 306 309 329 334 334 336 338 346 349 352 352 351 350 349 351 351 350 348 346 343 341 340 339 338 335 334 334 334 334 334 333 332 331 330
309 301 291 288 289 292 294 297 298 297 297 298 299 295 297 304 314 329 332 335 335 337 343 348 351 352 351 351 350 351 350 349 346 342 341 339 338 338 336 334 333 333 334 334 333 332 331 330 330
300 299 289 286 290 294 295 298 299 299 299 299 299 297 297 302 327 330 332 331 334 336 340 347 348 349 350 350 351 349 349 348 345 342 339 338 337 336 334 333 333 334 334 333 332 331 331 332 334
298 294 289 289 292 293 296 300 295 296 299 299 304 298 300 303 325 330 330 330 332 335 340 344 346 345 346 347 348 347 347 345 343 342 340 339 337 334 333 333 334 334 333 332 331 331 331 333 332
301 296 290 290 289 291 297 298 301 298 297 303 305 297 296 304 316 327 328 328 329 336 337 340 342 343 343 343 344 344 343 342 341 339 337 335 333 333 334 333 332 333 332 330 331 331 332 332 332
305 292 288 291 292 294 298 297 300 302 300 301 303 302 305 309 311 321 320 323 325 332 332 337 339 341 342 342 340 341 339 338 337 335 332 330 326 327 328 329 330 331 332 330 331 332 332 332 332
298 291 292 297 296 295 299 299 299 300 300 301 303 307 309 309 308 308 317 316 318 321 322 331 327 329 339 341 339 337 336 334 330 328 325 323 322 323 325 327 330 332 331 330 332 331 331 326 321
299 293 299 301 302 303 300 300 301 299 298 301 301 304 308 308 308 308 313 318 320 317 319 325 324 320 323 335 336 334 332 329 325 324 323 321 321 321 321 322 324 324 324 320 325 327 321 319 320
296 300 301 302 304 301 299 302 299 300 301 304 305 306 306 306 307 307 312 316 316 317 318 320 323 323 322 319 332 331 329 327 324 323 320 319 319 318 318 318 319 320 317 315 315 317 316 317 320
297 298 300 301 302 301 302 299 298 299 304 305 306 307 305 306 306 308 311 314 317 316 317 317 318 320 318 319 315 329 327 325 323 321 318 319 318 317 318 316 319 317 315 312 310 310 311 317 320
298 298 298 299 300 301 299 299 299 301 303 303 304 304 305 305 306 307 309 316 317 317 315 317 316 316 318 317 318 323 326 324 320 318 316 318 317 317 317 317 317 314 315 310 309 308 316 318 319
299 294 296 297 298 297 300 294 295 302 303 301 302 304 304 306 308 308 309 315 317 314 314 315 317 319 316 315 318 318 325 322 318 315 316 316 316 316 315 316 314 313 312 310 308 310 313 315 318
294 291 286 294 297 298 297 287 296 300 299 299 301 303 303 305 306 308 310 316 315 315 313 314 318 317 317 317 317 316 322 320 316 313 314 315 313 313 314 313 311 311 310 309 308 308 311 312 315
290 282 285 289 297 296 294 289 295 300 298 298 299 300 301 303 305 307 310 317 317 316 315 315 316 315 316 316 317 318 321 318 314 312 312 311 312 312 312 311 310 311 310 309 310 307 310 309 308
283 284 287 286 291 294 291 290 295 297 297 297 298 298 298 302 304 307 310 318 318 316 315 315 315 315 317 318 319 320 316 315 312 312 311 311 312 312 311 311 310 311 310 309 308 308 308 307 307
290 287 286 290 293 289 288 288 291 295 295 294 295 296 295 299 304 307 317 318 317 316 315 315 316 317 317 317 317 314 311 312 310 311 311 311 311 311 311 311 310 311 310 309 309 308 308 305 306
291 288 286 291 292 289 288 287 291 293 294 294 294 294 295 296 301 305 317 317 316 316 317 321 320 321 315 315 314 313 312 311 310 311 310 311 311 311 310 310 310 310 310 308 309 308 306 304 306
289 286 285 286 290 289 286 283 287 290 292 295 297 297 297 297 298 306 316 317 317 317 319 320 321 319 316 315 315 314 311 308 306 308 308 310 311 310 311 310 311 310 310 309 308 309 307 306 303
284 290 290 289 283 277 286 274 282 288 289 293 294 294 295 295 299 308 316 318 318 318 321 321 320 317 316 315 313 311 308 307 308 309 310 309 310 309 310 310 310 310 309 308 308 309 308 306 305
287 292 290 287 281 279 280 276 280 285 286 291 292 294 295 296 298 304 316 318 319 320 321 320 320 318 316 314 313 311 309 309 309 308 308 308 308 309 310 310 309 309 309 309 309 308 308 307 307
293 290 287 284 280 272 280 278 276 283 287 289 291 294 296 296 297 299 314 319 319 319 320 320 319 317 317 315 314 311 308 308 307 308 308 308 309 309 309 309 309 309 309 309 308 309 307 308 307
289 282 268 269 276 273 275 276 281 286 291 293 293 294 295 295 297 298 313 317 317 318 319 320 318 317 315 316 314 311 309 309 308 307 308 308 308 308 309 309 308 308 308 309 309 309 308 307 307
284 282 273 269 269 272 281 276 282 291 293 294 294 295 296 294 296 297 302 314 318 319 320 321 318 317 316 315 313 313 314 310 309 309 309 309 309 309 310 309 309 307 308 308 309 308 308 306 307
284 282 285 278 276 271 275 280 287 290 291 291 292 294 293 294 296 297 299 309 317 319 320 321 320 318 318 317 316 314 314 312 310 310 310 309 309 310 309 309 308 308 308 308 308 308 308 308 305
286 290 282 277 270 270 273 274 276 284 288 291 291 292 292 294 295 296 299 302 312 317 320 321 321 319 318 317 317 316 314 314 313 311 309 309 309 310 311 310 309 308 309 308 308 307 307 307 306
279 279 284 283 278 272 270 273 284 286 290 290 291 292 292 293 294 295 297 299 303 316 317 319 318 319 319 318 317 317 316 315 313 313 311 310 310 310 310 311 310 310 308 308 307 308 308 307 307
282 276 275 271 273 273 274 273 288 283 284 284 289 293 293 294 294 295 296 297 298 306 314 316 317 317 318 319 319 317 316 315 314 313 313 312 310 310 311 311 310 310 309 308 308 307 308 307 306
Wind_Speed
10 7 0 4 5 5 3 8 5 11 4 3 3 6 4 5 1 1 3 4 17 17 15 17 19 20 20 19 19 19 17 17 18 19 19 18 17 18 17 16 16 15 14 13 13 13 14 14 14
5 6 4 2 5 3 6 6 4 3 4 4 7 7 8 3 4 2 3 11 16 17 13 16 18 18 19 21 18 17 18 16 19 17 17 17 16 16 16 16 15 15 14 14 14 15 15 15 14
7 1 4 4 4 6 6 1 4 3 5 3 3 3 3 5 3 5 1 16 14 15 14 15 20 18 18 19 19 17 16 18 17 17 16 17 16 16 15 15 15 15 15 15 15 15 15 14 13
4 5 5 3 6 8 4 1 3 3 7 7 3 5 5 2 4 5 3 10 14 14 14 15 17 17 20 19 19 17 18 18 17 17 17 17 17 16 16 15 15 16 16 16 16 16 15 13 12
1 3 1 2 6 7 7 4 4 4 3 3 4 5 5 11 5 8 7 6 11 13 13 16 17 16 17 20 19 17 20 18 18 17 18 17 17 17 16 17 16 16 17 17 17 15 15 14 13
3 3 2 4 6 5 4 2 4 3 1 4 3 4 6 4 9 5 7 7 6 12 12 16 20 17 16 19 19 19 20 19 18 17 17 18 17 16 16 17 17 17 17 17 17 16 15 15 12
4 3 5 4 6 6 3 4 4 3 0 3 2 4 5 3 4 7 6 6 7 3 12 12 16 17 18 18 19 19 20 20 18 18 16 16 16 17 17 17 18 18 18 17 16 16 15 14 11
3 3 3 5 4 6 2 2 4 2 6 3 3 6 4 6 3 5 6 5 5 4 6 11 13 14 13 13 19 19 19 18 18 17 14 12 14 16 17 17 18 18 18 17 17 17 16 13 9
2 3 4 5 2 4 2 5 3 2 3 4 6 7 7 7 3 4 1 3 2 3 1 7 7 11 13 12 13 17 17 16 15 13 14 11 5 7 9 9 18 19 18 17 18 17 15 10 8
4 4 8 8 1 3 4 3 3 5 7 6 7 8 8 8 6 4 6 5 3 2 4 3 9 7 5 11 13 12 12 9 8 9 9 5 5 5 6 10 14 19 17 16 18 16 14 8 4
5 7 4 8 4 6 5 4 3 5 19 11 9 8 7 8 7 6 7 7 8 4 4 5 9 5 5 9 11 7 7 8 6 10 9 6 5 4 4 4 5 8 9 5 7 7 3 6 5
5 9 9 7 10 5 7 4 6 9 22 8 10 8 6 9 8 8 7 8 8 7 8 7 7 6 3 4 3 9 8 9 8 9 9 7 5 5 4 4 5 5 4 6 5 3 4 5 7
9 7 8 9 11 10 8 12 7 16 15 14 13 15 11 9 9 9 9 8 8 7 8 8 8 6 4 5 4 7 10 9 10 10 8 9 8 7 6 5 6 5 5 5 5 4 4 6 7
5 7 8 7 15 10 11 21 5 19 8 11 11 16 12 13 12 8 7 9 12 10 8 8 8 7 9 7 7 11 9 10 9 10 9 12 10 9 8 8 7 5 6 5 5 5 8 6 7
6 8 11 16 16 8 7 11 12 21 17 16 15 15 10 11 9 11 10 11 14 8 11 9 8 11 11 16 10 8 10 11 10 9 14 14 11 11 10 9 7 6 5 6 5 5 7 7 6
4 3 4 6 4 7 10 10 6 8 9 16 15 14 10 11 11 9 11 12 11 10 13 9 7 10 12 12 12 7 11 10 10 9 11 14 11 12 11 8 7 7 5 5 5 5 8 7 8
4 6 8 8 9 5 6 8 6 11 9 16 14 14 10 10 9 9 11 13 13 13 15 11 11 12 10 9 8 10 11 11 10 9 9 11 11 12 10 7 6 7 6 6 6 3 7 8 6
7 6 7 5 3 4 7 11 15 9 9 17 20 19 10 13 12 10 9 12 12 13 13 11 10 13 18 13 9 8 8 10 8 8 8 11 9 11 10 7 8 8 7 6 6 7 5 5 6
6 9 12 10 9 5 9 9 13 14 11 15 19 18 10 10 9 10 13 13 13 15 16 15 14 16 11 7 9 12 13 11 9 8 10 10 10 10 10 7 8 7 9 8 9 6 10 3 5
13 13 14 13 8 3 8 13 16 19 14 12 11 6 8 4 7 8 13 14 16 16 16 14 14 8 6 9 9 9 11 11 10 8 8 9 11 11 10 10 8 8 8 8 9 8 5 4 5
14 10 6 8 7 5 8 8 9 7 6 8 7 4 5 7 8 8 13 14 14 17 17 14 13 13 11 11 7 4 3 5 5 7 6 9 11 10 10 11 9 9 8 8 8 10 8 10 1
10 8 11 5 1 4 4 9 5 12 16 7 7 6 7 3 5 11 13 13 15 15 13 12 12 12 12 15 11 9 9 13 9 10 9 7 10 9 11 11 10 10 6 8 7 8 7 8 9
9 6 5 3 1 3 4 2 8 7 6 9 7 3 5 7 6 10 13 14 11 11 12 13 12 12 12 11 14 10 8 7 7 7 10 8 7 9 10 11 11 10 7 8 10 9 10 7 7
3 5 2 4 4 4 10 8 6 4 5 4 3 2 3 5 4 7 11 13 11 10 12 10 14 14 14 14 10 14 7 7 8 11 11 9 8 8 7 10 10 9 8 10 8 9 9 9 7
4 7 3 4 3 8 1 2 10 6 5 7 8 6 5 2 4 4 11 12 15 15 14 12 11 12 11 13 11 8 11 10 13 13 12 13 9 8 10 11 11 9 8 8 8 9 8 8 9
7 9 7 9 6 4 0 7 7 7 7 6 6 7 5 2 5 2 7 8 13 15 14 12 13 12 13 14 14 12 7 7 7 7 6 9 11 11 13 10 10 8 10 9 9 6 7 6 6
4 9 5 3 2 3 5 7 9 7 3 2 4 3 3 4 1 4 3 6 10 12 14 14 13 14 15 14 13 11 10 8 9 10 8 5 4 6 9 11 10 10 10 10 9 8 9 8 6
4 2 3 1 4 5 5 5 7 8 5 3 3 4 4 6 6 5 6 4 5 10 10 13 15 14 13 13 12 12 11 9 8 10 12 13 11 9 10 11 10 10 10 10 10 7 8 9 7
10 6 3 3 6 6 1 6 6 4 3 8 5 5 5 6 4 3 4 5 4 5 9 11 10 12 12 11 10 11 11 10 8 8 12 12 11 12 13 14 12 11 10 10 10 10 10 12 10
7 9 12 5 5 5 3 9 13 17 16 24 21 4 3 4 3 2 3 4 4 3 5 8 9 9 10 12 11 10 11 11 12 9 7 11 13 12 13 12 11 11 10 11 13 12 12 14 13
Wind_Direction
315 301 48 37 69 72 247 258 279 330 46 340 357 60 155 200 298 255 221 164 135 148 159 159 162 158 160 158 157 147 159 150 153 140 139 137 139 136 131 129 126 123 120 118 114 113 112 111 115
314 319 41 76 93 101 263 240 68 121 191 41 18 5 38 299 62 69 17 142 141 147 155 159 160 172 166 157 152 160 157 160 145 144 141 141 141 136 133 131 127 124 122 121 120 121 117 117 118
321 246 83 123 159 185 211 28 99 32 52 70 47 53 318 277 63 125 247 133 142 152 155 164 164 177 165 157 154 164 159 153 146 139 146 143 141 139 135 130 129 126 125 125 124 125 120 118 120
331 12 9 115 230 264 265 277 136 34 13 41 27 326 329 3 21 140 147 116 150 156 154 163 169 173 166 161 163 166 160 155 147 145 147 150 146 143 137 133 132 131 129 126 126 124 122 123 125
110 65 57 231 240 254 273 168 99 90 34 5 8 281 267 314 52 49 28 53 158 159 158 158 171 174 175 163 166 168 164 154 149 155 154 153 149 144 139 138 135 134 129 129 126 125 126 127 123
6 101 71 238 236 261 277 334 102 88 162 282 253 227 246 280 72 43 38 19 65 161 168 165 168 177 179 169 165 168 164 153 154 159 161 155 152 145 144 140 138 134 134 132 130 131 130 129 122
134 109 221 258 254 293 241 160 104 138 197 272 327 233 246 355 129 109 79 22 13 174 165 175 172 175 176 172 163 167 160 153 156 158 163 157 148 148 147 146 139 138 137 133 134 133 132 132 126
115 104 279 239 232 257 166 114 150 154 236 204 143 246 237 258 97 83 83 48 31 61 196 181 179 175 177 174 165 164 156 156 156 156 153 143 146 152 151 150 145 142 137 137 137 134 133 130 110
52 58 233 251 242 258 37 29 336 326 213 208 208 226 220 250 276 125 104 25 17 53 282 162 190 195 175 159 167 156 152 151 149 136 130 136 150 147 142 144 146 144 138 141 139 136 133 118 97
125 174 224 211 319 274 294 343 316 342 293 260 273 267 270 267 253 208 183 214 208 102 41 84 55 354 282 165 154 157 150 143 139 136 135 133 138 137 138 141 142 138 138 143 141 140 137 114 88
197 216 225 287 304 318 289 290 250 269 277 241 241 246 243 245 246 225 203 199 204 149 121 143 125 82 360 268 153 156 150 137 139 142 147 152 139 134 128 138 138 134 127 138 141 145 110 113 89
251 231 236 274 287 292 290 270 256 225 258 260 244 243 231 236 231 238 207 202 162 169 159 167 150 148 55 316 211 155 156 147 156 163 155 147 145 145 137 132 136 137 142 134 150 147 133 98 93
230 249 247 269 285 277 285 260 247 256 253 263 256 257 254 251 231 226 202 200 162 176 168 185 147 166 226 302 24 254 162 163 163 168 162 154 153 155 147 148 152 154 148 145 156 183 132 122 104
271 296 279 270 277 265 265 275 176 269 252 255 245 250 244 241 227 217 191 178 178 194 158 165 166 170 157 235 266 296 178 167 164 167 168 162 155 160 157 161 166 167 165 161 161 152 130 113 110
275 304 295 268 257 241 201 270 223 248 268 265 256 257 239 220 210 204 207 185 180 194 147 152 165 185 188 191 231 251 274 174 172 164 167 162 159 163 163 166 168 180 163 153 138 101 113 111 116
319 278 272 271 202 229 145 258 228 253 262 262 258 254 237 226 208 204 213 181 182 147 152 157 182 201 191 181 173 220 268 198 173 161 168 162 163 162 164 163 166 165 146 144 124 129 120 123 125
246 252 227 299 213 139 176 252 242 247 255 265 262 257 232 224 202 207 214 164 181 154 143 156 175 182 172 159 191 222 221 213 168 157 162 160 159 158 154 158 156 150 144 142 139 122 123 123 114
212 234 246 242 302 169 237 255 272 264 248 263 272 273 250 229 203 198 180 160 168 145 147 161 180 197 194 195 188 184 196 198 159 158 165 153 157 150 146 152 148 150 142 147 127 136 115 129 129
265 271 266 271 259 264 249 255 270 281 272 264 267 271 250 241 207 186 156 160 150 153 163 181 190 224 183 156 178 167 177 180 155 162 159 158 151 148 147 149 149 147 153 155 143 136 136 107 117
244 259 273 268 269 268 273 276 274 269 264 251 254 265 259 283 169 175 147 157 164 161 177 184 197 171 114 125 133 143 173 170 157 157 153 153 153 152 148 154 154 151 149 150 153 150 130 104 150
246 247 248 253 301 301 338 286 247 276 255 250 250 264 273 260 179 147 152 164 156 169 180 177 182 152 148 137 96 84 213 105 100 147 155 161 164 159 153 158 157 156 158 164 166 158 152 154 161
228 235 233 254 109 243 77 288 296 270 276 256 256 273 263 277 152 158 160 160 175 175 176 168 162 149 144 148 147 195 174 158 167 165 164 160 167 159 157 160 161 166 162 165 170 159 156 150 160
244 227 168 161 209 23 300 288 262 261 247 238 233 262 250 234 186 155 163 175 173 162 177 162 151 148 149 156 161 189 175 172 156 145 144 156 162 159 162 167 164 171 168 169 171 164 164 163 164
178 150 75 66 93 293 198 182 280 245 224 185 213 219 359 122 186 178 176 158 166 163 167 161 159 156 158 169 179 173 188 161 173 160 159 170 170 173 168 171 175 172 176 176 176 168 168 173 173
125 102 324 1 202 237 222 155 258 277 204 189 203 203 113 3 74 127 143 160 162 174 166 162 160 162 172 174 178 195 169 178 180 176 173 167 168 182 185 176 178 179 176 168 167 175 171 173 184
189 157 172 193 194 254 358 236 249 271 240 200 190 169 121 104 319 242 142 155 170 172 168 163 171 175 170 180 180 182 176 168 164 177 182 185 181 185 181 178 180 172 168 169 173 171 176 167 180
214 214 190 6 288 30 229 283 311 275 223 170 142 85 63 86 88 27 97 161 157 176 178 174 180 179 181 179 184 180 181 162 164 166 162 176 180 177 181 178 175 176 177 170 172 180 183 182 177
165 111 161 217 183 218 262 246 233 300 263 193 143 119 103 77 53 20 16 73 181 166 179 182 188 183 182 177 180 186 197 177 168 168 174 174 173 174 175 183 178 178 182 178 173 181 184 185 190
348 7 288 247 157 186 243 263 224 129 4 173 167 138 104 70 43 28 11 9 46 160 158 183 182 181 181 174 178 182 192 194 192 181 175 174 177 177 175 179 179 187 186 187 186 188 185 196 197
67 49 36 14 345 309 223 255 65 49 30 29 356 58 54 37 34 46 58 29 26 116 158 177 185 185 185 184 178 176 187 189 194 204 184 168 178 174 176 169 178 187 192 197 197 194 192 198 200